User: anonymous   Login
Location: Unspecified
(0.0000°N, 0.0000°E)
Time: 07:14:32
(UTC+00:00)
Language:

Cosmos 2491 - Orbit

View from above orbital plane
View from above orbital plane
View from above satellite
View from above satellite

Ground track
Ground track

The orbit data is extracted from the following two-line orbital elements,

1 39497U 13076E   24113.90613673  .00000038  00000-0  20427-3 0  9994
2 39497  82.4814 298.0568 0013110   7.9567 352.1719 12.43475823467654
Epoch (UTC): 22 April 2024 21:44:50
Eccentricity: 0.0013110
inclination: 82.4814°
perigee height: 1481 km
apogee height: 1502 km
right ascension of ascending node: 298.0568°
argument of perigee: 7.9567°
revolutions per day: 12.43475823
mean anomaly at epoch: 352.1719°
orbit number at epoch: 46765

The dashed part of the orbit path shows where the satellite is in the earth's shadow,  

DLR